Home   Weather   Hangzhou   Past weeks

Flag for China Past Weather in Hangzhou, Zhejiang, China — Yesterday and Last 2 Weeks

Now
70 °F

Rain. Fog.


Feels Like: 70 °F
Forecast: 59 / 67 °F
Wind: 3 mph from West

Location: Hangzhou Airport

Current Time: Apr 25, 2017 at 7:02:31 pm

Latest Report: Apr 25, 2017 at 6:30 pm


Visibility: 3 mi

Pressure: 29.89 "Hg

Humidity: 88%

Dew Point: 66 °F

Location of HangzhouLocation

Past Weather in Hangzhou — Graph

°F

Hangzhou Temperature Yesterday

Maximum temperature yesterday: 82 °F (at 2:00 pm)
Minimum temperature yesterday: 54 °F (at 3:30 am)
Average temperature yesterday: 68 °F

High & Low Weather Summary for the Past Weeks

 TemperatureHumidityPressure
High90 °F (Apr 16, 3:00 pm)100% (Apr 17, 7:30 am)30.18 "Hg (Apr 17, 7:30 am)
Low46 °F (Apr 13, 2:00 am)22% (Apr 12, 5:00 pm)29.65 "Hg (Apr 17, 4:30 am)
Average67 °F66%29.90 "Hg
* Reported Apr 10 5:00 pm — Apr 25 5:30 pm, Hangzhou, Weather by CustomWeather, © 2017

Note: Actual official high and low records may vary slightly from our data, if they occured in-between our weather recording intervals... More about our weather records

Advertising

Hangzhou Weather History for the Previous 24 Hours

Scroll right to see more
 ConditionsComfort  
Time TempWeatherWind HumidityBarometerVisibility
5:30 pm
Tue, Apr 25
73 °FLight rain. Clear.3 mph69%29.86 "HgN/A
5:00 pm75 °FLight rain. Scattered clouds.6 mph61%29.86 "HgN/A
4:30 pm75 °FSunny.8 mph61%29.83 "Hg10 mi
4:00 pm75 °FSunny.8 mph61%29.86 "Hg10 mi
3:30 pm77 °FSunny.6 mph57%29.86 "Hg10 mi
3:00 pm77 °FSunny.6 mph54%29.89 "Hg10 mi
2:30 pm77 °FPassing clouds.6 mph51%29.89 "HgN/A
1:30 pm81 °FSunny.1 mph42%29.89 "Hg10 mi
1:00 pm79 °FPassing clouds.3 mph48%29.92 "HgN/A
12:30 pm79 °FSunny.1 mph54%29.92 "Hg10 mi
11:30 am79 °FPassing clouds.3 mph51%29.95 "HgN/A
10:30 am77 °FPassing clouds.3 mph54%29.95 "HgN/A
9:30 am75 °FHaze.3 mph65%29.95 "Hg3 mi
9:00 am75 °FHaze.3 mph69%29.95 "Hg2 mi
8:30 am72 °FHaze.1 mph73%29.98 "Hg2 mi
8:00 am70 °FFog.1 mph78%29.95 "Hg2 mi
7:30 am68 °FFog.1 mph88%29.95 "Hg2 mi
7:00 am66 °FFog.3 mph88%29.95 "Hg2 mi
6:30 am64 °FFog.No wind94%29.95 "Hg2 mi
6:00 am63 °FFog.1 mph94%29.95 "Hg2 mi
5:30 am63 °FFog.No wind94%29.92 "Hg2 mi
5:00 am64 °FFog.1 mph88%29.92 "Hg3 mi
4:30 am63 °FFog.No wind94%29.92 "Hg3 mi
4:00 am63 °FClear.No wind94%29.92 "Hg4 mi
3:30 am63 °FClear.No wind94%29.92 "Hg4 mi
3:00 am64 °FClear.1 mph88%29.92 "Hg4 mi
2:30 am64 °FClear.1 mph88%29.92 "Hg4 mi
2:00 am64 °FClear.3 mph88%29.92 "Hg4 mi
1:30 am64 °FClear.3 mph88%29.92 "Hg4 mi
1:00 am66 °FClear.1 mph83%29.95 "Hg4 mi
12:30 am64 °FClear.3 mph88%29.95 "Hg4 mi
12:00 am66 °FClear.3 mph83%29.95 "Hg4 mi
11:30 pm
Mon, Apr 24
66 °FClear.3 mph83%29.98 "Hg5 mi
11:00 pm66 °FClear.1 mph83%29.95 "Hg5 mi
10:30 pm66 °FClear.3 mph83%29.98 "Hg10 mi
10:00 pm68 °FClear.3 mph78%29.98 "Hg10 mi
9:30 pm70 °FPassing clouds.3 mph73%29.98 "HgN/A
9:00 pm68 °FPassing clouds.3 mph78%29.95 "HgN/A
8:30 pm68 °FClear.6 mph78%29.95 "Hg10 mi
8:00 pm68 °FClear.6 mph73%29.95 "Hg10 mi
7:30 pm70 °FClear.6 mph69%29.95 "Hg10 mi
7:00 pm72 °FClear.6 mph61%29.92 "Hg10 mi
Weather by CustomWeather, © 2017

See weather overviewHow to use our weather pages